27-02-2023, 00:00:02,    333,    0.0,   -1.8,   0.00,   0.00, 1026.6,   72.6, -999.0
27-02-2023, 00:00:11,    333,    0.0,   -1.9,   0.00,   0.00, 1026.6,   72.6, -999.0
27-02-2023, 00:00:21,    333,    0.0,   -1.9,   0.00,   0.00, 1026.6,   72.6, -999.0
27-02-2023, 00:00:31,    334,    0.0,   -1.9,   0.00,   0.00, 1026.6,   72.6, -999.0
27-02-2023, 00:00:41,    333,    0.0,   -1.9,   0.00,   0.00, 1026.6,   72.5, -999.0
27-02-2023, 00:00:51,    333,    0.0,   -1.8,   0.00,   0.00, 1026.6,   72.6, -999.0
27-02-2023, 00:01:01,    334,    0.0,   -1.8,   0.00,   0.00, 1026.6,   72.6, -999.0
27-02-2023, 00:01:11,    333,    0.0,   -1.9,   0.00,   0.00, 1026.6,   72.6, -999.0
27-02-2023, 00:01:21,    334,    0.0,   -1.9,   0.00,   0.00, 1026.6,   72.5, -999.0
27-02-2023, 00:01:31,    334,    0.0,   -1.9,   0.00,   0.00, 1026.6,   72.5, -999.0
27-02-2023, 00:01:41,    333,    0.0,   -1.9,   0.00,   0.00, 1026.6,   72.6, -999.0
27-02-2023, 00:01:51,    333,    0.0,   -1.9,   0.00,   0.00, 1026.6,   72.5, -999.0
27-02-2023, 00:02:01,    333,    0.0,   -1.9,   0.00,   0.00, 1026.6,   72.5, -999.0
27-02-2023, 00:02:11,    333,    0.0,   -1.9,   0.00,   0.00, 1026.6,   72.4, -999.0
27-02-2023, 00:02:21,    334,    0.0,   -1.9,   0.00,   0.00, 1026.6,   72.4, -999.0
27-02-2023, 00:02:31,    334,    0.0,   -2.0,   0.00,   0.00, 1026.6,   72.5, -999.0
27-02-2023, 00:02:41,    333,    0.0,   -1.9,   0.00,   0.00, 1026.6,   72.5, -999.0
27-02-2023, 00:02:51,    334,    0.0,   -1.9,   0.00,   0.00, 1026.6,   72.5, -999.0
27-02-2023, 00:03:01,    333,    0.0,   -2.0,   0.00,   0.00, 1026.6,   72.5, -999.0
27-02-2023, 00:03:11,    333,    0.0,   -2.0,   0.00,   0.00, 1026.6,   72.6, -999.0
27-02-2023, 00:03:21,    333,    0.0,   -2.0,   0.00,   0.00, 1026.6,   72.5, -999.0
27-02-2023, 00:03:31,    334,    0.0,   -2.0,   0.00,   0.00, 1026.6,   72.5, -999.0
27-02-2023, 00:03:41,    334,    0.0,   -2.0,   0.00,   0.00, 1026.6,   72.6, -999.0
27-02-2023, 00:03:51,    334,    0.0,   -2.1,   0.00,   0.00, 1026.6,   72.6, -999.0
27-02-2023, 00:04:01,    334,    0.0,   -2.2,   0.00,   0.00, 1026.6,   72.6, -999.0
27-02-2023, 00:04:11,    333,    0.0,   -2.1,   0.00,   0.00, 1026.6,   72.6, -999.0
27-02-2023, 00:04:21,    332,    0.0,   -2.1,   0.00,   0.00, 1026.6,   72.6, -999.0
27-02-2023, 00:04:31,    333,    0.0,   -1.9,   0.00,   0.00, 1026.6,   72.9, -999.0
27-02-2023, 00:04:41,    333,    0.0,   -2.0,   0.00,   0.00, 1026.7,   73.0, -999.0
27-02-2023, 00:04:51,    333,    0.0,   -1.9,   0.00,   0.00, 1026.6,   73.0, -999.0
27-02-2023, 00:05:01,    333,    0.0,   -2.0,   0.00,   0.00, 1026.6,   72.8, -999.0
27-02-2023, 00:05:11,    333,    0.0,   -2.0,   0.00,   0.00, 1026.6,   72.7, -999.0
27-02-2023, 00:05:21,    334,    0.0,   -1.9,   0.00,   0.00, 1026.6,   72.8, -999.0
27-02-2023, 00:05:31,    334,    0.0,   -2.0,   0.00,   0.00, 1026.6,   72.9, -999.0
27-02-2023, 00:05:41,    333,    0.0,   -2.0,   0.00,   0.00, 1026.6,   72.9, -999.0
27-02-2023, 00:05:51,    332,    0.0,   -2.0,   0.00,   0.00, 1026.6,   72.9, -999.0
27-02-2023, 00:06:01,    326,    0.0,   -1.9,   0.00,   0.00, 1026.6,   72.8, -999.0
27-02-2023, 00:06:11,    333,    0.0,   -2.0,   0.00,   0.00, 1026.6,   72.8, -999.0
27-02-2023, 00:06:21,    334,    0.0,   -2.0,   0.00,   0.00, 1026.6,   72.8, -999.0
27-02-2023, 00:06:31,    334,    0.0,   -2.0,   0.00,   0.00, 1026.6,   72.9, -999.0
27-02-2023, 00:06:41,    333,    0.0,   -1.9,   0.00,   0.00, 1026.6,   73.0, -999.0
27-02-2023, 00:06:51,    333,    0.0,   -2.0,   0.00,   0.00, 1026.6,   73.0, -999.0
27-02-2023, 00:07:01,    333,    0.0,   -2.0,   0.00,   0.00, 1026.6,   73.0, -999.0
27-02-2023, 00:07:11,    333,    0.0,   -2.0,   0.00,   0.00, 1026.6,   73.0, -999.0
27-02-2023, 00:07:21,    334,    0.0,   -1.9,   0.00,   0.00, 1026.6,   72.9, -999.0
27-02-2023, 00:07:31,    333,    0.0,   -1.9,   0.00,   0.00, 1026.6,   73.0, -999.0
27-02-2023, 00:07:41,    334,    0.0,   -2.0,   0.00,   0.00, 1026.6,   73.0, -999.0
27-02-2023, 00:07:51,    334,    0.0,   -2.0,   0.00,   0.00, 1026.6,   73.0, -999.0
27-02-2023, 00:08:01,    333,    0.0,   -2.0,   0.00,   0.00, 1026.6,   73.1, -999.0
27-02-2023, 00:08:11,    333,    0.0,   -2.0,   0.00,   0.00, 1026.6,   73.0, -999.0
27-02-2023, 00:08:20,    333,    0.0,   -2.1,   0.00,   0.00, 1026.6,   73.0, -999.0
27-02-2023, 00:08:31,    333,    0.0,   -2.0,   0.00,   0.00, 1026.6,   73.1, -999.0
27-02-2023, 00:08:41,    334,    0.0,   -2.1,   0.00,   0.00, 1026.6,   73.1, -999.0
27-02-2023, 00:08:51,    333,    0.0,   -2.0,   0.00,   0.00, 1026.6,   73.1, -999.0
27-02-2023, 00:09:00,    333,    0.0,   -2.0,   0.00,   0.00, 1026.6,   73.2, -999.0
27-02-2023, 00:09:11,    333,    0.0,   -2.0,   0.00,   0.00, 1026.6,   73.3, -999.0
27-02-2023, 00:09:21,    334,    0.0,   -2.0,   0.00,   0.00, 1026.6,   73.4, -999.0
27-02-2023, 00:09:30,    334,    0.0,   -1.9,   0.00,   0.00, 1026.7,   73.4, -999.0
27-02-2023, 00:09:40,    334,    0.0,   -2.0,   0.00,   0.00, 1026.7,   73.3, -999.0
27-02-2023, 00:09:51,    334,    0.0,   -2.0,   0.00,   0.00, 1026.6,   73.3, -999.0
27-02-2023, 00:10:01,    335,    0.0,   -2.1,   0.00,   0.00, 1026.6,   73.2, -999.0
27-02-2023, 00:10:10,    334,    0.0,   -2.0,   0.00,   0.00, 1026.7,   73.2, -999.0
27-02-2023, 00:10:20,    335,    0.0,   -2.0,   0.00,   0.00, 1026.6,   73.2, -999.0
27-02-2023, 00:10:31,    334,    0.0,   -2.0,   0.00,   0.00, 1026.7,   73.1, -999.0
27-02-2023, 00:10:40,    334,    0.0,   -2.0,   0.00,   0.00, 1026.7,   73.2, -999.0
27-02-2023, 00:10:50,    334,    0.0,   -2.1,   0.00,   0.00, 1026.6,   73.1, -999.0
27-02-2023, 00:11:00,    334,    0.0,   -2.0,   0.00,   0.00, 1026.7,   73.2, -999.0
27-02-2023, 00:11:11,    333,    0.0,   -2.1,   0.00,   0.00, 1026.7,   73.2, -999.0
27-02-2023, 00:11:20,    335,    0.0,   -2.0,   0.00,   0.00, 1026.6,   73.3, -999.0
27-02-2023, 00:11:30,    334,    0.0,   -2.1,   0.00,   0.00, 1026.7,   73.3, -999.0
27-02-2023, 00:11:41,    334,    0.0,   -2.0,   0.00,   0.00, 1026.6,   73.2, -999.0
27-02-2023, 00:11:50,    335,    0.0,   -2.0,   0.00,   0.00, 1026.7,   73.3, -999.0
27-02-2023, 00:12:00,    334,    0.0,   -2.1,   0.00,   0.00, 1026.7,   73.5, -999.0
27-02-2023, 00:12:10,    335,    0.0,   -2.0,   0.00,   0.00, 1026.7,   73.5, -999.0
27-02-2023, 00:12:21,    334,    0.0,   -2.0,   0.00,   0.00, 1026.6,   73.5, -999.0
27-02-2023, 00:12:30,    335,    0.0,   -2.1,   0.00,   0.00, 1026.7,   73.6, -999.0
27-02-2023, 00:12:40,    334,    0.0,   -2.1,   0.00,   0.00, 1026.7,   73.6, -999.0
27-02-2023, 00:12:50,    334,    0.0,   -2.1,   0.00,   0.00, 1026.7,   73.6, -999.0
27-02-2023, 00:13:00,    334,    0.0,   -2.0,   0.00,   0.00, 1026.6,   73.5, -999.0
27-02-2023, 00:13:10,    334,    0.0,   -2.1,   0.00,   0.00, 1026.6,   73.6, -999.0
27-02-2023, 00:13:20,    334,    0.0,   -2.1,   0.00,   0.00, 1026.6,   73.6, -999.0
27-02-2023, 00:13:30,    334,    0.0,   -2.0,   0.00,   0.00, 1026.6,   73.6, -999.0
27-02-2023, 00:13:40,    335,    0.0,   -2.1,   0.00,   0.00, 1026.7,   73.6, -999.0
27-02-2023, 00:13:50,    334,    0.0,   -2.1,   0.00,   0.00, 1026.6,   73.6, -999.0
27-02-2023, 00:14:00,    335,    0.0,   -2.1,   0.00,   0.00, 1026.6,   73.5, -999.0
27-02-2023, 00:14:10,    335,    0.0,   -2.1,   0.00,   0.00, 1026.7,   73.5, -999.0
27-02-2023, 00:14:20,    334,    0.0,   -2.1,   0.00,   0.00, 1026.6,   73.5, -999.0
27-02-2023, 00:14:30,    334,    0.0,   -2.1,   0.00,   0.00, 1026.6,   73.6, -999.0
27-02-2023, 00:14:41,    334,    0.0,   -2.2,   0.00,   0.00, 1026.6,   73.6, -999.0
27-02-2023, 00:14:50,    335,    0.0,   -2.2,   0.00,   0.00, 1026.6,   73.5, -999.0
27-02-2023, 00:15:00,    335,    0.0,   -2.1,   0.00,   0.00, 1026.6,   73.7, -999.0
27-02-2023, 00:15:10,    334,    0.0,   -2.2,   0.00,   0.00, 1026.6,   73.7, -999.0
27-02-2023, 00:15:20,    335,    0.0,   -2.3,   0.00,   0.00, 1026.6,   73.7, -999.0
27-02-2023, 00:15:30,    334,    0.0,   -2.3,   0.00,   0.00, 1026.6,   73.7, -999.0
27-02-2023, 00:15:40,    335,    0.0,   -2.2,   0.00,   0.00, 1026.6,   73.7, -999.0
27-02-2023, 00:15:50,    334,    0.0,   -2.3,   0.00,   0.00, 1026.6,   73.6, -999.0
27-02-2023, 00:16:00,    335,    0.0,   -2.2,   0.00,   0.00, 1026.6,   73.6, -999.0
27-02-2023, 00:16:10,    334,    0.0,   -2.2,   0.00,   0.00, 1026.6,   73.8, -999.0
27-02-2023, 00:16:20,    335,    0.0,   -2.2,   0.00,   0.00, 1026.6,   73.8, -999.0
27-02-2023, 00:16:30,    335,    0.0,   -2.2,   0.00,   0.00, 1026.6,   74.0, -999.0
27-02-2023, 00:16:40,    335,    0.0,   -2.3,   0.00,   0.00, 1026.6,   73.9, -999.0
27-02-2023, 00:16:50,    334,    0.0,   -2.2,   0.00,   0.00, 1026.6,   73.9, -999.0
27-02-2023, 00:17:00,    335,    0.0,   -2.2,   0.00,   0.00, 1026.6,   74.1, -999.0
27-02-2023, 00:17:10,    335,    0.0,   -2.2,   0.00,   0.00, 1026.6,   74.1, -999.0
27-02-2023, 00:17:20,    336,    0.0,   -2.2,   0.00,   0.00, 1026.6,   74.2, -999.0
27-02-2023, 00:17:30,    335,    0.0,   -2.2,   0.00,   0.00, 1026.6,   74.3, -999.0
27-02-2023, 00:17:40,    335,    0.0,   -2.2,   0.00,   0.00, 1026.6,   74.2, -999.0
27-02-2023, 00:17:50,    334,    0.0,   -2.2,   0.00,   0.00, 1026.6,   74.4, -999.0
27-02-2023, 00:18:00,    335,    0.0,   -2.1,   0.00,   0.00, 1026.6,   74.3, -999.0
27-02-2023, 00:18:10,    335,    0.0,   -2.2,   0.00,   0.00, 1026.6,   74.3, -999.0
27-02-2023, 00:18:20,    334,    0.0,   -2.2,   0.00,   0.00, 1026.6,   74.3, -999.0
27-02-2023, 00:18:30,    335,    0.0,   -2.2,   0.00,   0.00, 1026.6,   74.2, -999.0
27-02-2023, 00:18:40,    335,    0.0,   -2.1,   0.00,   0.00, 1026.6,   74.2, -999.0
27-02-2023, 00:18:50,    334,    0.0,   -2.1,   0.00,   0.00, 1026.6,   74.3, -999.0
27-02-2023, 00:19:00,    335,    0.0,   -2.1,   0.00,   0.00, 1026.6,   74.4, -999.0
27-02-2023, 00:19:10,    335,    0.0,   -2.2,   0.00,   0.00, 1026.6,   74.4, -999.0
27-02-2023, 00:19:20,    335,    0.0,   -2.1,   0.00,   0.00, 1026.6,   74.5, -999.0
27-02-2023, 00:19:29,    334,    0.0,   -2.1,   0.00,   0.00, 1026.6,   74.5, -999.0
27-02-2023, 00:19:40,    335,    0.0,   -2.1,   0.00,   0.00, 1026.6,   74.5, -999.0
27-02-2023, 00:19:50,    335,    0.0,   -2.1,   0.00,   0.00, 1026.6,   74.5, -999.0
27-02-2023, 00:20:00,    335,    0.0,   -2.1,   0.00,   0.00, 1026.6,   74.4, -999.0
27-02-2023, 00:20:10,    335,    0.0,   -2.2,   0.00,   0.00, 1026.6,   74.4, -999.0
27-02-2023, 00:20:20,    335,    0.0,   -2.2,   0.00,   0.00, 1026.6,   74.3, -999.0
27-02-2023, 00:20:30,    334,    0.0,   -2.2,   0.00,   0.00, 1026.6,   74.4, -999.0
27-02-2023, 00:20:39,    334,    0.0,   -2.1,   0.00,   0.00, 1026.6,   74.4, -999.0
27-02-2023, 00:20:50,    334,    0.0,   -2.1,   0.00,   0.00, 1026.6,   74.5, -999.0
27-02-2023, 00:21:00,    335,    0.0,   -2.1,   0.00,   0.00, 1026.6,   74.5, -999.0
27-02-2023, 00:21:10,    334,    0.0,   -2.1,   0.00,   0.00, 1026.6,   74.5, -999.0
27-02-2023, 00:21:19,    335,    0.0,   -2.1,   0.00,   0.00, 1026.6,   74.5, -999.0
27-02-2023, 00:21:30,    334,    0.0,   -2.2,   0.00,   0.00, 1026.6,   74.4, -999.0
27-02-2023, 00:21:40,    335,    0.0,   -2.2,   0.00,   0.00, 1026.6,   74.3, -999.0
27-02-2023, 00:21:49,    335,    0.0,   -2.2,   0.00,   0.00, 1026.6,   74.4, -999.0
27-02-2023, 00:21:59,    335,    0.0,   -2.1,   0.00,   0.00, 1026.6,   74.3, -999.0
27-02-2023, 00:22:10,    335,    0.0,   -2.3,   0.00,   0.00, 1026.6,   74.4, -999.0
27-02-2023, 00:22:20,    334,    0.0,   -2.2,   0.00,   0.00, 1026.6,   74.4, -999.0
27-02-2023, 00:22:29,    335,    0.0,   -2.2,   0.00,   0.00, 1026.6,   74.4, -999.0
27-02-2023, 00:22:39,    334,    0.0,   -2.2,   0.00,   0.00, 1026.6,   74.5, -999.0
27-02-2023, 00:22:50,    335,    0.0,   -2.3,   0.00,   0.00, 1026.6,   74.5, -999.0
27-02-2023, 00:22:59,    334,    0.0,   -2.2,   0.00,   0.00, 1026.6,   74.4, -999.0
27-02-2023, 00:23:09,    334,    0.0,   -2.1,   0.00,   0.00, 1026.6,   74.5, -999.0
27-02-2023, 00:23:19,    335,    0.0,   -2.1,   0.00,   0.00, 1026.6,   74.4, -999.0
27-02-2023, 00:23:30,    334,    0.0,   -2.2,   0.00,   0.00, 1026.6,   74.6, -999.0
27-02-2023, 00:23:39,    334,    0.0,   -2.2,   0.00,   0.00, 1026.6,   74.6, -999.0
27-02-2023, 00:23:49,    334,    0.0,   -2.1,   0.00,   0.00, 1026.6,   74.6, -999.0
27-02-2023, 00:23:59,    335,    0.0,   -2.1,   0.00,   0.00, 1026.6,   74.7, -999.0
27-02-2023, 00:24:09,    334,    0.0,   -2.2,   0.00,   0.00, 1026.6,   74.7, -999.0
27-02-2023, 00:24:19,    334,    0.0,   -2.1,   0.00,   0.00, 1026.6,   74.8, -999.0
27-02-2023, 00:24:29,    335,    0.0,   -2.2,   0.00,   0.00, 1026.6,   74.8, -999.0
27-02-2023, 00:24:39,    334,    0.0,   -2.2,   0.00,   0.00, 1026.6,   74.7, -999.0
27-02-2023, 00:24:49,    334,    0.0,   -2.2,   0.00,   0.00, 1026.6,   74.7, -999.0
27-02-2023, 00:24:59,    335,    0.0,   -2.2,   0.00,   0.00, 1026.6,   74.7, -999.0
27-02-2023, 00:25:09,    334,    0.0,   -2.3,   0.00,   0.00, 1026.6,   74.7, -999.0
27-02-2023, 00:25:19,    334,    0.0,   -2.2,   0.00,   0.00, 1026.6,   74.6, -999.0
27-02-2023, 00:25:29,    336,    0.0,   -2.2,   0.00,   0.00, 1026.6,   74.6, -999.0
27-02-2023, 00:25:39,    334,    0.0,   -2.2,   0.00,   0.00, 1026.6,   74.7, -999.0
27-02-2023, 00:25:49,    334,    0.0,   -2.1,   0.00,   0.00, 1026.6,   74.7, -999.0
27-02-2023, 00:25:59,    334,    0.0,   -2.2,   0.00,   0.00, 1026.6,   74.7, -999.0
27-02-2023, 00:26:09,    334,    0.0,   -2.2,   0.00,   0.00, 1026.6,   74.7, -999.0
27-02-2023, 00:26:19,    334,    0.0,   -2.2,   0.00,   0.00, 1026.6,   74.7, -999.0
27-02-2023, 00:26:29,    334,    0.0,   -2.2,   0.00,   0.00, 1026.6,   74.7, -999.0
27-02-2023, 00:26:39,    335,    0.0,   -2.2,   0.00,   0.00, 1026.6,   74.6, -999.0
27-02-2023, 00:26:49,    334,    0.0,   -2.2,   0.00,   0.00, 1026.6,   74.6, -999.0
27-02-2023, 00:26:59,    335,    0.0,   -2.3,   0.00,   0.00, 1026.6,   74.7, -999.0
27-02-2023, 00:27:09,    334,    0.0,   -2.1,   0.00,   0.00, 1026.6,   74.9, -999.0
27-02-2023, 00:27:19,    335,    0.0,   -2.2,   0.00,   0.00, 1026.6,   75.0, -999.0
27-02-2023, 00:27:29,    334,    0.0,   -2.2,   0.00,   0.00, 1026.6,   74.9, -999.0
27-02-2023, 00:27:39,    335,    0.0,   -2.2,   0.00,   0.00, 1026.6,   75.0, -999.0
27-02-2023, 00:27:49,    334,    0.0,   -2.1,   0.00,   0.00, 1026.6,   75.0, -999.0
27-02-2023, 00:27:59,    334,    0.0,   -2.0,   0.00,   0.00, 1026.6,   75.2, -999.0
27-02-2023, 00:28:09,    334,    0.0,   -2.1,   0.00,   0.00, 1026.6,   75.3, -999.0
27-02-2023, 00:28:19,    334,    0.0,   -2.1,   0.00,   0.00, 1026.6,   75.2, -999.0
27-02-2023, 00:28:29,    334,    0.0,   -2.2,   0.00,   0.00, 1026.6,   75.2, -999.0
27-02-2023, 00:28:39,    334,    0.0,   -2.2,   0.00,   0.00, 1026.6,   75.0, -999.0
27-02-2023, 00:28:49,    334,    0.0,   -2.1,   0.00,   0.00, 1026.6,   75.0, -999.0
27-02-2023, 00:28:59,    334,    0.0,   -2.1,   0.00,   0.00, 1026.6,   74.9, -999.0
27-02-2023, 00:29:09,    334,    0.0,   -2.1,   0.00,   0.00, 1026.6,   74.9, -999.0
27-02-2023, 00:29:19,    334,    0.0,   -2.1,   0.00,   0.00, 1026.6,   74.9, -999.0
27-02-2023, 00:29:29,    334,    0.0,   -2.1,   0.00,   0.00, 1026.6,   74.8, -999.0
27-02-2023, 00:29:39,    335,    0.0,   -2.0,   0.00,   0.00, 1026.6,   75.0, -999.0
27-02-2023, 00:29:49,    334,    0.0,   -2.1,   0.00,   0.00, 1026.6,   75.0, -999.0
27-02-2023, 00:29:59,    334,    0.0,   -2.1,   0.00,   0.00, 1026.6,   75.0, -999.0
27-02-2023, 00:30:09,    334,    0.0,   -2.1,   0.00,   0.00, 1026.6,   75.0, -999.0
27-02-2023, 00:30:19,    334,    0.0,   -2.1,   0.00,   0.00, 1026.6,   74.9, -999.0
27-02-2023, 00:30:29,    334,    0.0,   -2.1,   0.00,   0.00, 1026.6,   74.9, -999.0
27-02-2023, 00:30:39,    335,    0.0,   -2.0,   0.00,   0.00, 1026.6,   74.8, -999.0
27-02-2023, 00:30:49,    334,    0.0,   -2.1,   0.00,   0.00, 1026.6,   74.9, -999.0
27-02-2023, 00:30:59,    335,    0.0,   -2.0,   0.00,   0.00, 1026.6,   74.9, -999.0
27-02-2023, 00:31:09,    335,    0.0,   -2.1,   0.00,   0.00, 1026.6,   75.0, -999.0
27-02-2023, 00:31:19,    335,    0.0,   -2.0,   0.00,   0.00, 1026.6,   75.1, -999.0
27-02-2023, 00:31:29,    334,    0.0,   -2.1,   0.00,   0.00, 1026.6,   75.0, -999.0
27-02-2023, 00:31:38,    334,    0.0,   -2.1,   0.00,   0.00, 1026.6,   75.0, -999.0
27-02-2023, 00:31:49,    334,    0.0,   -2.1,   0.00,   0.00, 1026.6,   75.1, -999.0
27-02-2023, 00:31:59,    334,    0.0,   -2.2,   0.00,   0.00, 1026.6,   75.1, -999.0
27-02-2023, 00:32:09,    335,    0.0,   -2.2,   0.00,   0.00, 1026.6,   75.1, -999.0
27-02-2023, 00:32:18,    334,    0.0,   -2.1,   0.00,   0.00, 1026.6,   75.0, -999.0
27-02-2023, 00:32:29,    334,    0.0,   -2.1,   0.00,   0.00, 1026.6,   75.1, -999.0
27-02-2023, 00:32:39,    334,    0.0,   -2.2,   0.00,   0.00, 1026.6,   74.9, -999.0
27-02-2023, 00:32:48,    334,    0.0,   -2.1,   0.00,   0.00, 1026.6,   75.0, -999.0
27-02-2023, 00:32:58,    334,    0.0,   -2.1,   0.00,   0.00, 1026.6,   74.9, -999.0
27-02-2023, 00:33:09,    334,    0.0,   -2.1,   0.00,   0.00, 1026.6,   75.0, -999.0
27-02-2023, 00:33:19,    334,    0.0,   -2.2,   0.00,   0.00, 1026.6,   75.0, -999.0
27-02-2023, 00:33:28,    334,    0.0,   -2.1,   0.00,   0.00, 1026.6,   75.0, -999.0
27-02-2023, 00:33:38,    334,    0.0,   -2.1,   0.00,   0.00, 1026.6,   75.0, -999.0
27-02-2023, 00:33:49,    334,    0.0,   -2.1,   0.00,   0.00, 1026.6,   75.0, -999.0
27-02-2023, 00:33:58,    334,    0.0,   -2.1,   0.00,   0.00, 1026.6,   75.0, -999.0
27-02-2023, 00:34:08,    335,    0.0,   -2.1,   0.00,   0.00, 1026.6,   75.0, -999.0
27-02-2023, 00:34:19,    334,    0.0,   -2.1,   0.00,   0.00, 1026.6,   74.9, -999.0
27-02-2023, 00:34:29,    334,    0.0,   -2.1,   0.00,   0.00, 1026.6,   74.9, -999.0
27-02-2023, 00:34:38,    334,    0.0,   -2.1,   0.00,   0.00, 1026.6,   75.1, -999.0
27-02-2023, 00:34:48,    335,    0.0,   -2.1,   0.00,   0.00, 1026.6,   75.0, -999.0
27-02-2023, 00:34:59,    334,    0.0,   -2.1,   0.00,   0.00, 1026.6,   75.0, -999.0
27-02-2023, 00:35:08,    334,    0.0,   -2.2,   0.00,   0.00, 1026.6,   75.1, -999.0
27-02-2023, 00:35:18,    334,    0.0,   -2.1,   0.00,   0.00, 1026.6,   75.2, -999.0
27-02-2023, 00:35:28,    334,    0.0,   -2.0,   0.00,   0.00, 1026.6,   75.2, -999.0
27-02-2023, 00:35:38,    334,    0.0,   -2.0,   0.00,   0.00, 1026.6,   75.2, -999.0
27-02-2023, 00:35:48,    334,    0.0,   -2.1,   0.00,   0.00, 1026.6,   75.1, -999.0
27-02-2023, 00:35:58,    334,    0.0,   -2.0,   0.00,   0.00, 1026.6,   75.2, -999.0
27-02-2023, 00:36:08,    334,    0.0,   -2.1,   0.00,   0.00, 1026.6,   75.1, -999.0
27-02-2023, 00:36:18,    334,    0.0,   -2.1,   0.00,   0.00, 1026.6,   75.0, -999.0
27-02-2023, 00:36:28,    334,    0.0,   -2.2,   0.00,   0.00, 1026.6,   75.0, -999.0
27-02-2023, 00:36:38,    334,    0.0,   -2.1,   0.00,   0.00, 1026.6,   75.0, -999.0
27-02-2023, 00:36:48,    334,    0.0,   -2.1,   0.00,   0.00, 1026.6,   75.0, -999.0
27-02-2023, 00:36:58,    335,    0.0,   -2.2,   0.00,   0.00, 1026.6,   75.0, -999.0
27-02-2023, 00:37:08,    335,    0.0,   -2.1,   0.00,   0.00, 1026.6,   75.1, -999.0
27-02-2023, 00:37:18,    334,    0.0,   -2.1,   0.00,   0.00, 1026.6,   75.0, -999.0
27-02-2023, 00:37:28,    334,    0.0,   -2.1,   0.00,   0.00, 1026.6,   75.0, -999.0
27-02-2023, 00:37:38,    334,    0.0,   -2.1,   0.00,   0.00, 1026.6,   75.0, -999.0
27-02-2023, 00:37:48,    334,    0.0,   -2.1,   0.00,   0.00, 1026.6,   75.0, -999.0
27-02-2023, 00:37:58,    334,    0.0,   -2.1,   0.00,   0.00, 1026.6,   75.0, -999.0
27-02-2023, 00:38:08,    334,    0.0,   -2.1,   0.00,   0.00, 1026.6,   75.0, -999.0
27-02-2023, 00:38:18,    334,    0.0,   -2.2,   0.00,   0.00, 1026.6,   75.0, -999.0
27-02-2023, 00:38:28,    335,    0.0,   -2.1,   0.00,   0.00, 1026.6,   75.1, -999.0
27-02-2023, 00:38:38,    334,    0.0,   -2.1,   0.00,   0.00, 1026.6,   75.1, -999.0
27-02-2023, 00:38:48,    334,    0.0,   -2.1,   0.00,   0.00, 1026.6,   75.0, -999.0
27-02-2023, 00:38:58,    334,    0.0,   -2.3,   0.00,   0.00, 1026.6,   75.0, -999.0
27-02-2023, 00:39:08,    334,    0.0,   -2.1,   0.00,   0.00, 1026.6,   74.9, -999.0
27-02-2023, 00:39:18,    335,    0.0,   -2.1,   0.00,   0.00, 1026.6,   74.9, -999.0
27-02-2023, 00:39:28,    334,    0.0,   -2.1,   0.00,   0.00, 1026.6,   75.0, -999.0
27-02-2023, 00:39:38,    334,    0.0,   -2.1,   0.00,   0.00, 1026.6,   75.0, -999.0
27-02-2023, 00:39:48,    334,    0.0,   -2.1,   0.00,   0.00, 1026.6,   75.0, -999.0
27-02-2023, 00:39:58,    335,    0.0,   -2.2,   0.00,   0.00, 1026.6,   75.0, -999.0
27-02-2023, 00:40:08,    334,    0.0,   -2.2,   0.00,   0.00, 1026.6,   75.1, -999.0
27-02-2023, 00:40:18,    334,    0.0,   -2.1,   0.00,   0.00, 1026.6,   75.0, -999.0
27-02-2023, 00:40:28,    334,    0.0,   -2.2,   0.00,   0.00, 1026.6,   75.1, -999.0
27-02-2023, 00:40:38,    334,    0.0,   -2.2,   0.00,   0.00, 1026.6,   75.1, -999.0
27-02-2023, 00:40:48,    334,    0.0,   -2.2,   0.00,   0.00, 1026.6,   75.1, -999.0
27-02-2023, 00:40:58,    334,    0.0,   -2.1,   0.00,   0.00, 1026.6,   75.2, -999.0
27-02-2023, 00:41:08,    334,    0.0,   -2.2,   0.00,   0.00, 1026.6,   75.3, -999.0
27-02-2023, 00:41:18,    334,    0.0,   -2.2,   0.00,   0.00, 1026.6,   75.3, -999.0
27-02-2023, 00:41:28,    334,    0.0,   -2.2,   0.00,   0.00, 1026.6,   75.3, -999.0
27-02-2023, 00:41:38,    334,    0.0,   -2.2,   0.00,   0.00, 1026.6,   75.3, -999.0
27-02-2023, 00:41:48,    335,    0.0,   -2.1,   0.00,   0.00, 1026.6,   75.5, -999.0
27-02-2023, 00:41:58,    335,    0.0,   -2.1,   0.00,   0.00, 1026.6,   75.4, -999.0
27-02-2023, 00:42:08,    334,    0.0,   -2.3,   0.00,   0.00, 1026.6,   75.5, -999.0
27-02-2023, 00:42:18,    334,    0.0,   -2.2,   0.00,   0.00, 1026.6,   75.5, -999.0
27-02-2023, 00:42:28,    334,    0.0,   -2.1,   0.00,   0.00, 1026.6,   75.5, -999.0
27-02-2023, 00:42:38,    334,    0.0,   -2.1,   0.00,   0.00, 1026.6,   75.5, -999.0
27-02-2023, 00:42:48,    335,    0.0,   -2.2,   0.00,   0.00, 1026.6,   75.4, -999.0
27-02-2023, 00:42:58,    334,    0.0,   -2.2,   0.00,   0.00, 1026.6,   75.3, -999.0
27-02-2023, 00:43:08,    334,    0.0,   -2.2,   0.00,   0.00, 1026.6,   75.2, -999.0
27-02-2023, 00:43:18,    334,    0.0,   -2.2,   0.00,   0.00, 1026.6,   75.3, -999.0
27-02-2023, 00:43:28,    334,    0.0,   -2.2,   0.00,   0.00, 1026.6,   75.3, -999.0
27-02-2023, 00:43:38,    334,    0.0,   -2.1,   0.00,   0.00, 1026.6,   75.4, -999.0
27-02-2023, 00:43:47,    334,    0.0,   -2.2,   0.00,   0.00, 1026.6,   75.5, -999.0
27-02-2023, 00:43:58,    334,    0.0,   -2.2,   0.00,   0.00, 1026.6,   75.6, -999.0
27-02-2023, 00:44:08,    334,    0.0,   -2.2,   0.00,   0.00, 1026.6,   75.6, -999.0
27-02-2023, 00:44:18,    334,    0.0,   -2.1,   0.00,   0.00, 1026.6,   75.7, -999.0
27-02-2023, 00:44:27,    334,    0.0,   -2.1,   0.00,   0.00, 1026.6,   75.8, -999.0
27-02-2023, 00:44:38,    334,    0.0,   -2.1,   0.00,   0.00, 1026.6,   75.7, -999.0
27-02-2023, 00:44:48,    335,    0.0,   -2.2,   0.00,   0.00, 1026.6,   75.6, -999.0
27-02-2023, 00:44:57,    334,    0.0,   -2.2,   0.00,   0.00, 1026.6,   75.5, -999.0
27-02-2023, 00:45:07,    334,    0.0,   -2.1,   0.00,   0.00, 1026.6,   75.5, -999.0
27-02-2023, 00:45:18,    334,    0.0,   -2.2,   0.00,   0.00, 1026.6,   75.5, -999.0
27-02-2023, 00:45:28,    334,    0.0,   -2.2,   0.00,   0.00, 1026.6,   75.6, -999.0
27-02-2023, 00:45:37,    334,    0.0,   -2.2,   0.00,   0.00, 1026.6,   75.6, -999.0
27-02-2023, 00:45:47,    334,    0.0,   -2.1,   0.00,   0.00, 1026.6,   75.5, -999.0
27-02-2023, 00:45:58,    334,    0.0,   -2.3,   0.00,   0.00, 1026.6,   75.5, -999.0
27-02-2023, 00:46:07,    334,    0.0,   -2.1,   0.00,   0.00, 1026.6,   75.5, -999.0
27-02-2023, 00:46:17,    334,    0.0,   -2.2,   0.00,   0.00, 1026.6,   75.5, -999.0
27-02-2023, 00:46:27,    334,    0.0,   -2.2,   0.00,   0.00, 1026.6,   75.6, -999.0
27-02-2023, 00:46:38,    334,    0.0,   -2.2,   0.00,   0.00, 1026.6,   75.6, -999.0
27-02-2023, 00:46:47,    334,    0.0,   -2.2,   0.00,   0.00, 1026.6,   75.6, -999.0